Location: Hilton Head Island
(32.2163°N, 80.7526°W)
Time: 12:43:11
(UTC-05:00)

Vanguard 2 - Pass Details

Date: 18 February 2026
Orbit: 553 x 2896 km, 32.9° (Epoch: 6 March)

Event Time Altitude Azimuth Distance (km) Brightness Sun altitude
Exits shadow 05:30:54 24° 228° (SW) 1,892 9.1 -20.0°
Maximum altitude 05:34:30 52° 163° (SSE) 982 8.1 -19.3°
Drops below altitude 10° 05:38:55 10° 86° (E) 2,028 11.0 -18.3°
Sets 05:40:56 0° 81° (E) 2,824 12.0 -17.9°
